Location: Beaurecueil
(43.5122°N, 5.5450°E)
Time: 01:06:39
(UTC+00:00)

Cosmos 2034 Rocket - Pass Details

Date: 18 September 2020
Orbit: 957 x 1002 km, 82.9° (Epoch: 26 October)

Event Time Altitude Azimuth Distance (km) Brightness Sun altitude
Rises 18:52:41 0° 167° (SSE) 3,711 6.8 -13.5°
Reaches altitude 10° 18:55:18 10° 162° (SSE) 2,765 6.1 -13.9°
Maximum altitude 19:01:21 48° 90° (E) 1,285 4.2 -15.0°
Drops below altitude 10° 19:07:24 10° 19° (NNE) 2,771 6.4 -16.1°
Sets 19:10:00 0° 14° (NNE) 3,719 7.1 -16.5°
